www.pogodaiklimat.ru

Погода и климат >> Архив погоды >> Ирак >> Dohuk


ПОГОДА в Dohuk

  • Прогноз погоды в Dohuk
  • Монитор погоды в Dohuk
  • Климат города

АРХИВ ПОГОДЫ в Dohuk

Время (UTC), дата Ветер
(напр.,м/с)
 
Видим.   Явления Облачность Т
(С)
Тd
(С)
f
(%)
Тe
(С)
Тes
(С)
Комфортность P
(гПа)
Po
(гПа)
Тmin
(С)
Tmax
(С)
R
(мм)
R24
(мм)
S
(см)
03 11.08 СВ 1 10 км ясно +24.7 +12.6 47 +27 +27 жарко 1004.2 1004.0
15 11.08 ЮЗ 2 9000 м пыль ясно +38.7 +12.7 21 +38 +39 очень
жарко
1001.0 1001.0
03 12.08 СВ 1 10 км ясно +25.0 +12.8 47 +27 +27 жарко 1003.7 1004.0
06 12.08 СЗ 1 10 км ясно +30.1 +12.3 33 +31 +43 жарко 1004.8 1005.0 +24.7
09 12.08 З 3 10 км ясно +35.9 +14.7 28 +37 +53 опасность
солнечного
удара
1004.1 1004.0
12 12.08 З 3 10 км ясно +37.9 +11.0 20 +37 +46 очень
жарко
1002.9 1003.0
15 12.08 З 3 10 км ясно +37.2 +12.4 23 +37 +38 очень
жарко
1001.8 1002.0
18 12.08 З 2 10 км ясно +31.0 +14.3 36 +33 +33 душно 1002.7 1003.0 +38.9
03 13.08 С 1 10 км ясно +23.5 +13.1 52 +26 +26 жарко 1002.0 1002.0
06 13.08 СЗ 1 10 км ясно +30.5 +14.6 38 +33 +44 душно 1001.3 1001.0 +23.5
09 13.08 СЗ 4 10 км ясно +36.0 +12.6 25 +36 +49 очень
жарко
999.7 1000.0
12 13.08 СЗ 1 10 км ясно +38.9 +13.8 23 +39 +53 опасность
солнечного
удара
997.7 998.0
18 13.08 штиль 0 10 км ясно +31.8 +14.2 34 +33 +33 жарко 997.0 997.0 +39.6
03 14.08 В 1 10 км ясно +24.0 +9.9 41 +25 +25 комфорт 1008.4 1008.0
06 14.08 СЗ 1 10 км ясно +31.8 +11.4 29 +32 +44 жарко 998.9 999.0 +24.0
09 14.08 СЗ 2 10 км ясно +36.8 +14.6 27 +38 +57 опасность
солнечного
удара
998.7 999.0
12 14.08 Ю 1 10 км ясно +39.3 +11.2 19 +38 +52 опасность
солнечного
удара
996.7 997.0
15 14.08 З 2 10 км ясно +38.9 +11.0 19 +38 +39 очень
жарко
996.3 996.0
18 14.08 Ю 1 10 км ясно +33.0 +12.6 29 +33 +33 жарко 997.8 998.0 +40.0
09 15.08 СВ 1 9000 м пыль ясно +37.8 +12.6 22 +37 +59 опасность
солнечного
удара
1000.4 1000.0
18 15.08 штиль 0 10 км ясно +33.2 +14.9 33 +35 +35 душно 1000.8 1001.0 +40.9
03 16.08 С 1 10 км ясно +25.8 +12.2 43 +27 +28 жарко 1003.2 1003.0
06 16.08 З 1 10 км ясно +31.6 +12.9 32 +32 +44 жарко 1003.4 1003.0 +25.6
09 16.08 СЗ 3 9000 м пыль ясно +38.0 +12.2 21 +37 +53 опасность
солнечного
удара
1002.6 1003.0
12 16.08 СЗ 1 10 км ясно +40.2 +13.2 20 +40 +53 опасность
солнечного
удара
1001.6 1002.0
15 16.08 З 2 10 км ясно +39.0 +11.1 19 +38 +39 очень
жарко
1000.8 1001.0
18 16.08 В 1 10 км ясно +33.0 +12.8 29 +33 +33 жарко 1002.0 1002.0 +41.2
06 17.08 С 1 10 км ясно +32.5 +9.5 24 +32 +43 жарко 1003.9 1004.0 +25.5
12 17.08 СЗ 3 10 км ясно +41.0 +9.9 16 +40 +49 очень
жарко
1000.7 1001.0
15 17.08 СЗ 2 10 км ясно +39.8 +12.3 20 +39 +40 очень
жарко
999.4 999.0
18 17.08 С 1 10 км ясно +33.5 +13.1 29 +34 +34 очень
жарко
1000.0 1000.0 +42.0

 

Местоположение метеостанции Dohuk (Ирак): широта 36.87 долгота 43.00 высота над уровнем моря 276 м.

В архиве по умолчанию представлена погода в Dohuk за последнюю неделю. Архивные данные за месяц целиком и за предыдущие месяцы, начиная с января 2011 года, Вы можете получить, выбрав интересующий диапазон дат из раскрывающегося списка и нажав кнопку "Ввод!".


*Определитесь, кто Вы:
робот инопланетянин человек

Внимание! Время в таблицах - всемирное. Для получения местного времени необходимо прибавить поправку, которая в Dohuk равна 3 ч.

Смотрите также архив погоды в соседних городах и на ближайших метеорологических станциях:

Погода в Zakho (Ирак) (38 км)
Погода в Mosul (Ирак) (63 км)
Погода в Tel-Afer (Ирак) (72 км)
Погода в Aqraa (Ирак) (79 км)
Погода в Rabiah (Ирак) (80 км)
Погода в S?rnak (Турция) (87 км)
Погода в Hakkari (Турция) (104 км)
Погода в Erbeel (Ирак) (120 км)
Погода в Salahadin (Ирак) (120 км)
Погода в Makhmoor (Ирак) (136 км)

Пояснения к столбцам:

Ветер - указаны скорость ветра в м/с - средняя за 10 мин, порывы в срок и между сроками (в фигурных скобках) и направление, откуда дует ветер: С - северный, СВ - северо-восточный, В - восточный, ЮВ - юго-восточный, Ю - южный, ЮЗ - юго-западный, З - западный, СЗ - северо-западный.
Видимость - горизонтальная дальность видимости в метрах или километрах. При видимости от 1 до 10 км при отсутствии осадков обычно наблюдается дымка, при ухудшении видимости до 1 км и менее - туман. В сухую погоду видимость может ухудшаться дымом, пылью или мглою.
Явления - указаны атмосферные явления, наблюдавшиеся в срок или в последний час перед сроком; фигурными скобками обозначены явления, наблюдавшиеся между сроками (за 1-3 часа до срока); квадратными скобками обозначены град или гололедные отложения с указанием их диаметра в мм.
Облачность - указаны через наклонную черту общая и нижняя облачность в баллах и высота нижней границы облаков в метрах; квадратными скобками обозначены формы облаков: Ci - перистые, Cs - перисто-слоистые, Cc - перисто-кучевые, Ac - высококучевые, As - высокослоистые, Sc - слоисто-кучевые, Ns - слоисто-дождевые, Cu - кучевые, Cb - кучево-дождевые. Подробнее классификацию облаков см. в Атласе облаков (PDF).
T - Температура воздуха - температура, измеренная на высоте 2 м над землей.
Td - Температура точки росы - температура, при понижении до которой содержащийся в воздухе водяной пар достигнет насыщения.
f - Относительная влажность воздуха - влажноcть воздуха, измеренная на высоте 2 м над землей.
Te - Эффективная температура - температура, которую ощущает одетый по сезону человек в тени. Характеристика душности погоды. При расчете учитывается влияние влажности воздуха и скорости ветра на теплоощущения человека.
Tes - Эффективная температура на солнце - температура, которую ощущает человек, с поправкой на солнечный нагрев. Характеристика знойности погоды. Зависит от высоты солнца над горизонтом, облачности и скорости ветра. Ночью, в пасмурную погоду, а также при ветре 12 м/с и более поправка равна нулю.
P - Атмосферное давление - приведенное к уровню моря атмосферное давление.
Po - Атмосферное давление - измеренное на уровне метеостанции атмосферное давление.
Tmin - Минимальная температура - минимум температуры воздуха на высоте 2 м над землей.
Tmax - Максимальная температура - максимум температуры воздуха на высоте 2 м над землей.
R - Количество осадков - Количество выпавших осадков за период времени, мм. При наведении курсора мыши на число - период времени, за который выпало указанное количество осадков.
R24 - Количество осадков - Количество выпавших осадков за 24 часа, мм.
S - Снежный покров - Высота снежного покрова, см. При наведении курсора мыши на число - состояние снежного покрова и степень покрытия местности в баллах.